Location: Middlebury
(44.0153°N, 73.1678°W)
Time: 11:44:47
(UTC-04:00)

QB50P2 - Pass Details

Date: 24 June 2024
Orbit: 561 x 578 km, 98.0° (Epoch: 18 July)

Event Time Altitude Azimuth Distance (km) Brightness Sun altitude
Rises 04:24:09 0° 3° (N) 2,767 ? -7.4°
Reaches altitude 10° 04:26:29 10° 352° (N) 1,864 ? -7.1°
Maximum altitude 04:30:00 30° 291° (WNW) 1,026 ? -6.6°
Drops below altitude 10° 04:33:30 10° 230° (SW) 1,850 ? -6.1°
Enters shadow 04:34:02 - 227° (SW) 2,047 ? -6.1°
